EW4939 Weather Reports


time (UTC)temp
C
wind
direction
speed
KPH
gust
KPH
rain 1hr
cm
rain 24hr
cm
rain mn
cm
humidity
%
barometer
mb
20260902212528 35 235 3.2 4.8 0.00 0.00 0.00 51 1016.4
20260902212023 35 188 4.8 6.4 0.00 0.00 0.00 52 1016.3
20260902211520 35 197 1.6 4.8 0.00 0.00 0.00 52 1016.4
20260902211014 35 216 0.0 6.4 0.00 0.00 0.00 53 1016.5
20260902210514 35 169 3.2 4.8 0.00 0.00 0.00 52 1016.4
20260902210014 35 201 0.0 6.4 0.00 0.00 0.00 52 1016.3
20260902205508 35 186 1.6 9.7 0.00 0.00 0.00 53 1016.5
20260902205004 35 170 8.0 11.3 0.00 0.00 0.00 53 1016.5
20260902204503 34 264 0.0 4.8 0.00 0.00 0.00 54 1016.5
20260902203958 35 196 1.6 4.8 0.00 0.00 0.00 51 1016.6
20260902203454 35 239 3.2 6.4 0.00 0.00 0.00 52 1016.8
20260902202952 35 194 3.2 3.2 0.00 0.00 0.00 51 1016.6
20260902202449 35 201 3.2 4.8 0.00 0.00 0.00 51 1016.6
20260902201945 35 193 1.6 1.6 0.00 0.00 0.00 52 1016.4
20260902201440 35 234 0.0 3.2 0.00 0.00 0.00 52 1016.7
20260902200940 35 204 6.4 6.4 0.00 0.00 0.00 51 1016.8
20260902200435 35 4 1.6 3.2 0.00 0.00 0.00 52 1016.8
20260902195931 36 222 1.6 3.2 0.00 0.00 0.00 50 1016.8
20260902195426 36 183 1.6 4.8 0.00 0.00 0.00 50 1017.0
20260902194926 35 237 1.6 11.3 0.00 0.00 0.00 52 1017.0
20260902194426 35 246 4.8 9.7 0.00 0.00 0.00 50 1017.0
20260902193920 36 316 1.6 4.8 0.00 0.00 0.00 51 1017.2
20260902193417 35 170 0.0 4.8 0.00 0.00 0.00 53 1017.0
20260902192915 35 210 1.6 3.2 0.00 0.00 0.00 50 1017.1
20260902192414 35 200 4.8 9.7 0.00 0.00 0.00 51 1017.2
20260902191913 35 327 3.2 9.7 0.00 0.00 0.00 51 1017.3
20260902191409 35 51 1.6 4.8 0.00 0.00 0.00 51 1017.3
20260902190904 35 305 0.0 3.2 0.00 0.00 0.00 53 1017.4
20260902190405 35 284 3.2 4.8 0.00 0.00 0.00 52 1017.6
20260902185900 35 26 0.0 3.2 0.00 0.00 0.00 52 1017.5
20260902185356 35 150 1.6 4.8 0.00 0.00 0.00 52 1017.4
20260902184851 35 197 3.2 4.8 0.00 0.00 0.00 53 1017.5
20260902184346 35 69 1.6 4.8 0.00 0.00 0.00 54 1017.5
20260902183842 35 205 0.0 4.8 0.00 0.00 0.00 53 1017.5
20260902183338 35 184 4.8 6.4 0.00 0.00 0.00 53 1017.7
20260902182834 35 209 4.8 9.7 0.00 0.00 0.00 54 1017.6
20260902182330 34 284 6.4 9.7 0.00 0.00 0.00 53 1017.7
20260902181827 35 253 1.6 6.4 0.00 0.00 0.00 54 1017.5
20260902181322 34 207 3.2 4.8 0.00 0.00 0.00 53 1017.7
20260902180821 33 247 0.0 4.8 0.00 0.00 0.00 53 1017.6
20260902180317 33 311 0.0 4.8 0.00 0.00 0.00 56 1017.8
20260902175812 33 198 0.0 4.8 0.00 0.00 0.00 55 1017.9
20260902175308 33 276 1.6 4.8 0.00 0.00 0.00 55 1017.8
20260902174803 32 267 1.6 4.8 0.00 0.00 0.00 59 1017.9
20260902174300 33 194 3.2 4.8 0.00 0.00 0.00 56 1018.0
20260902173755 34 166 3.2 14.5 0.00 0.00 0.00 57 1018.0
20260902173255 33 313 3.2 3.2 0.00 0.00 0.00 57 1018.1
20260902172749 33 206 3.2 4.8 0.00 0.00 0.00 57 1018.1
20260902172249 33 204 6.4 9.7 0.00 0.00 0.00 58 1018.2
20260902171744 33 214 3.2 3.2 0.00 0.00 0.00 58 1018.1
20260902171239 33 188 3.2 9.7 0.00 0.00 0.00 59 1018.1
20260902170735 33 194 4.8 6.4 0.00 0.00 0.00 59 1018.1
20260902170231 33 202 1.6 6.4 0.00 0.00 0.00 61 1018.1
20260902165726 33 218 3.2 4.8 0.00 0.00 0.00 62 1018.4
20260902165220 33 194 0.0 4.8 0.00 0.00 0.00 62 1018.3
20260902164721 32 284 3.2 6.4 0.00 0.00 0.00 62 1018.4
20260902164220 32 171 3.2 6.4 0.00 0.00 0.00 61 1018.5
20260902163715 32 254 3.2 6.4 0.00 0.00 0.00 62 1018.4
20260902163215 32 193 1.6 4.8 0.00 0.00 0.00 62 1018.4
20260902162714 32 54 0.0 4.8 0.00 0.00 0.00 62 1018.3
20260902162208 32 181 3.2 4.8 0.00 0.00 0.00 61 1018.4
20260902161703 32 270 1.6 3.2 0.00 0.00 0.00 63 1018.3
20260902161159 32 311 1.6 4.8 0.00 0.00 0.00 64 1018.4
20260902160656 32 191 1.6 4.8 0.00 0.00 0.00 64 1018.5
20260902160150 32 172 1.6 3.2 0.00 0.00 0.00 65 1018.7
20260902155649 31 173 3.2 4.8 0.00 0.00 0.00 65 1018.6
20260902155147 31 246 0.0 4.8 0.00 0.00 0.00 66 1018.7
20260902154643 31 285 1.6 3.2 0.00 0.00 0.00 68 1018.7
20260902154137 31 268 0.0 4.8 0.00 0.00 0.00 69 1018.6
20260902153637 31 198 1.6 3.2 0.00 0.00 0.00 67 1018.6
20260902153132 31 201 3.2 4.8 0.00 0.00 0.00 68 1018.8
20260902152628 31 131 0.0 0.0 0.00 0.00 0.00 69 1018.8
20260902152123 31 184 3.2 4.8 0.00 0.00 0.00 68 1019.0
20260902151619 30 183 1.6 3.2 0.00 0.00 0.00 70 1018.6
20260902151118 30 3 0.0 4.8 0.00 0.00 0.00 71 1018.8
20260902150614 30 285 1.6 6.4 0.00 0.00 0.00 70 1019.0
20260902150110 30 188 0.0 1.6 0.00 0.00 0.00 71 1018.8
20260902145610 30 175 1.6 4.8 0.00 0.00 0.00 71 1018.9
20260902145109 30 190 1.6 3.2 0.00 0.00 0.00 72 1018.8
20260902144606 30 187 1.6 3.2 0.00 0.00 0.00 71 1018.8
20260902144106 30 229 0.0 1.6 0.00 0.00 0.00 72 1018.8
20260902143601 29 117 1.6 1.6 0.00 0.00 0.00 73 1019.0
20260902143056 29 35 1.6 4.8 0.00 0.00 0.00 73 1018.9
20260902142552 29 350 0.0 1.6 0.00 0.00 0.00 74 1018.6
20260902142048 28 208 0.0 3.2 0.00 0.00 0.00 74 1018.8
20260902141548 28 316 1.6 3.2 0.00 0.00 0.00 74 1018.8
20260902141043 28 189 1.6 1.6 0.00 0.00 0.00 74 1018.6
20260902140537 28 12 3.2 3.2 0.00 0.00 0.00 74 1018.6
20260902140033 28 33 0.0 4.8 0.00 0.00 0.00 75 1018.8
20260902135532 28 311 0.0 3.2 0.00 0.00 0.00 74 1018.8
20260902135027 28 265 0.0 4.8 0.00 0.00 0.00 74 1018.8
20260902134523 28 329 0.0 3.2 0.00 0.00 0.00 74 1018.9
20260902134023 28 340 0.0 1.6 0.00 0.00 0.00 75 1018.8
20260902133524 28 294 0.0 1.6 0.00 0.00 0.00 76 1018.7
20260902133024 27 191 1.6 3.2 0.00 0.00 0.00 75 1018.7
20260902132519 27 197 0.0 1.6 0.00 0.00 0.00 77 1018.6
20260902132014 27 6 0.0 1.6 0.00 0.00 0.00 77 1018.5
20260902131511 27 211 0.0 1.6 0.00 0.00 0.00 78 1018.8
20260902131010 27 337 0.0 1.6 0.00 0.00 0.00 79 1018.7
20260902130506 27 226 1.6 3.2 0.00 0.00 0.00 78 1018.6
20260902130001 26 211 0.0 4.8 0.00 0.00 0.00 79 1018.6
20260902125457 26 182 1.6 1.6 0.00 0.00 0.00 80 1018.6
20260902124952 26 192 0.0 1.6 0.00 0.00 0.00 80 1018.8
20260902124448 26 251 3.2 3.2 0.00 0.00 0.00 80 1018.6
20260902123943 26 209 0.0 0.0 0.00 0.00 0.00 82 1018.6
20260902123440 25 209 0.0 0.0 0.00 0.00 0.00 83 1018.6
20260902122938 25 202 0.0 1.6 0.00 0.00 0.00 86 1018.5
20260902122434 24 181 0.0 0.0 0.00 0.00 0.00 89 1018.5
20260902121929 23 181 0.0 0.0 0.00 0.00 0.00 90 1018.6
20260902121424 23 181 0.0 0.0 0.00 0.00 0.00 92 1018.5
20260902120924 23 181 0.0 0.0 0.00 0.00 0.00 90 1018.3
20260902120421 23 181 0.0 0.0 0.00 0.00 0.00 90 1018.6
20260902115920 23 181 0.0 0.0 0.00 0.00 0.00 90 1018.5
20260902115416 23 181 0.0 0.0 0.00 0.00 0.00 90 1018.2
20260902114913 23 181 0.0 0.0 0.00 0.00 0.00 90 1018.3
20260902114408 23 181 0.0 0.0 0.00 0.00 0.00 90 1018.2
20260902113903 23 181 0.0 0.0 0.00 0.00 0.00 90 1018.1
20260902113359 23 181 0.0 0.0 0.00 0.00 0.00 92 1018.1
20260902112858 23 181 0.0 0.0 0.00 0.00 0.00 92 1018.0
20260902112354 23 181 0.0 0.0 0.00 0.00 0.00 91 1018.0
20260902111850 23 181 0.0 1.6 0.00 0.00 0.00 89 1018.0
20260902111346 23 181 0.0 1.6 0.00 0.00 0.00 89 1017.8
20260902110841 23 181 0.0 1.6 0.00 0.00 0.00 89 1017.9
20260902110337 23 181 0.0 1.6 0.00 0.00 0.00 89 1017.8
20260902105837 23 181 0.0 0.0 0.00 0.00 0.00 90 1017.8
20260902105332 22 181 0.0 0.0 0.00 0.00 0.00 95 1017.8
20260902104827 22 181 0.0 0.0 0.00 0.00 0.00 95 1018.0
20260902104324 22 181 0.0 0.0 0.00 0.00 0.00 95 1017.9
20260902103823 22 181 0.0 0.0 0.00 0.00 0.00 95 1018.0
20260902103318 22 181 0.0 0.0 0.00 0.00 0.00 95 1017.9
20260902102814 22 181 0.0 0.0 0.00 0.00 0.00 95 1017.9
20260902102312 22 181 0.0 0.0 0.00 0.00 0.00 94 1017.9
20260902101807 22 181 0.0 0.0 0.00 0.00 0.00 94 1018.0
20260902101301 23 181 0.0 0.0 0.00 0.00 0.00 94 1018.0
20260902100801 23 181 0.0 0.0 0.00 0.00 0.00 94 1018.0
20260902100300 23 181 0.0 0.0 0.00 0.00 0.00 93 1018.0
20260902095756 23 181 0.0 0.0 0.00 0.00 0.00 93 1017.9
20260902095256 23 181 0.0 0.0 0.00 0.00 0.00 93 1017.9
20260902094750 23 181 0.0 0.0 0.00 0.00 0.00 92 1017.8
20260902094247 23 181 0.0 0.0 0.00 0.00 0.00 92 1017.8
20260902093746 23 181 0.0 0.0 0.00 0.00 0.00 91 1017.9
20260902093241 23 181 0.0 1.6 0.00 0.00 0.00 89 1017.8
20260902092740 23 178 0.0 0.0 0.00 0.00 0.00 91 1017.9
20260902092236 23 178 0.0 0.0 0.00 0.00 0.00 93 1017.8
20260902091735 23 178 0.0 0.0 0.00 0.00 0.00 93 1017.7
20260902091232 23 178 0.0 0.0 0.00 0.00 0.00 93 1017.6
20260902090728 23 178 0.0 0.0 0.00 0.00 0.00 92 1017.8
20260902090227 23 178 0.0 0.0 0.00 0.00 0.00 92 1017.5
20260902085721 23 178 0.0 0.0 0.00 0.00 0.00 93 1017.5
20260902085216 23 178 0.0 0.0 0.00 0.00 0.00 93 1017.6
20260902084712 23 178 0.0 0.0 0.00 0.00 0.00 93 1017.6
20260902084208 23 178 0.0 0.0 0.00 0.00 0.00 92 1017.4
20260902083703 23 178 0.0 0.0 0.00 0.00 0.00 92 1017.2
20260902083202 23 178 0.0 0.0 0.00 0.00 0.00 92 1017.4
20260902082657 23 178 0.0 0.0 0.00 0.00 0.00 92 1017.1
20260902082154 23 178 0.0 0.0 0.00 0.00 0.00 93 1017.1
20260902081650 23 178 0.0 0.0 0.00 0.00 0.00 93 1017.1
20260902081145 23 178 0.0 0.0 0.00 0.00 0.00 93 1017.2
20260902080640 23 178 0.0 0.0 0.00 0.00 0.00 93 1017.1
20260902080137 23 178 0.0 0.0 0.00 0.00 0.00 92 1017.3
20260902075637 23 178 0.0 0.0 0.00 0.00 0.00 92 1017.1
20260902075133 23 178 0.0 0.0 0.00 0.00 0.00 92 1017.1
20260902074628 23 178 0.0 0.0 0.00 0.00 0.00 93 1017.1
20260902074123 23 178 0.0 0.0 0.00 0.00 0.00 93 1017.1
20260902073618 23 178 0.0 0.0 0.00 0.00 0.00 92 1017.2
20260902073115 23 178 0.0 0.0 0.00 0.00 0.00 92 1017.2
20260902072610 23 178 0.0 0.0 0.00 0.00 0.00 91 1017.1
20260902072107 23 178 0.0 0.0 0.00 0.00 0.00 91 1017.0
20260902071607 24 178 0.0 0.0 0.00 0.00 0.00 90 1017.1
20260902071103 24 178 0.0 0.0 0.00 0.00 0.00 88 1017.2
20260902070558 24 178 0.0 1.6 0.00 0.00 0.00 88 1017.1
20260902070053 24 178 0.0 0.0 0.00 0.00 0.00 88 1017.1
20260902065552 24 178 0.0 0.0 0.00 0.00 0.00 88 1017.1
20260902065048 24 178 0.0 1.6 0.00 0.00 0.00 88 1017.2
20260902064544 24 178 0.0 0.0 0.00 0.00 0.00 88 1017.1
20260902064039 24 178 0.0 0.0 0.00 0.00 0.00 90 1017.2
20260902063539 24 178 0.0 0.0 0.00 0.00 0.00 90 1017.1
20260902063034 24 178 0.0 0.0 0.00 0.00 0.00 89 1017.2
20260902062532 25 178 0.0 0.0 0.00 0.00 0.00 89 1017.2
20260902062029 25 178 0.0 0.0 0.00 0.00 0.00 87 1017.1
20260902061528 25 178 0.0 0.0 0.00 0.00 0.00 86 1017.1
20260902061024 25 178 0.0 0.0 0.00 0.00 0.00 82 1017.1
20260902060520 26 178 0.0 0.0 0.00 0.00 0.00 82 1017.1
20260902060016 25 178 0.0 1.6 0.00 0.00 0.00 82 1017.2
20260902055512 25 178 0.0 0.0 0.00 0.00 0.00 83 1017.3
20260902055007 25 178 0.0 0.0 0.00 0.00 0.00 83 1017.1
20260902054508 25 178 0.0 0.0 0.00 0.00 0.00 84 1017.1
20260902054003 25 178 0.0 0.0 0.00 0.00 0.00 85 1017.0
20260902053458 25 178 0.0 0.0 0.00 0.00 0.00 85 1017.2
20260902052957 25 178 0.0 0.0 0.00 0.00 0.00 86 1017.3
20260902052452 25 178 0.0 0.0 0.00 0.00 0.00 86 1017.2
20260902051948 25 178 0.0 0.0 0.00 0.00 0.00 86 1017.4
20260902051442 25 178 0.0 0.0 0.00 0.00 0.00 87 1017.3
20260902050941 25 178 0.0 0.0 0.00 0.00 0.00 88 1017.3
20260902050441 25 178 0.0 0.0 0.00 0.00 0.00 85 1017.5
20260902045936 25 178 0.0 0.0 0.00 0.00 0.00 88 1017.3
20260902045432 25 178 0.0 0.0 0.00 0.00 0.00 88 1017.4
20260902044928 25 178 0.0 0.0 0.00 0.00 0.00 88 1017.4
20260902044423 25 178 0.0 0.0 0.00 0.00 0.00 87 1017.3
20260902043918 25 178 0.0 0.0 0.00 0.00 0.00 85 1017.3
20260902043413 26 178 0.0 0.0 0.00 0.00 0.00 82 1017.3
20260902042908 26 178 0.0 0.0 0.00 0.00 0.00 84 1017.3
20260902042408 26 178 0.0 0.0 0.00 0.00 0.00 82 1017.2
20260902041904 26 178 1.6 1.6 0.00 0.00 0.00 80 1017.2
20260902041403 27 178 0.0 0.0 0.00 0.00 0.00 78 1017.3
20260902040902 27 178 1.6 1.6 0.00 0.00 0.00 76 1017.3
20260902040357 27 178 0.0 1.6 0.00 0.00 0.00 75 1017.3
20260902035857 27 178 1.6 1.6 0.00 0.00 0.00 75 1017.3
20260902035352 27 177 1.6 1.6 0.00 0.00 0.00 75 1017.4
20260902034850 27 178 1.6 1.6 0.00 0.00 0.00 75 1017.4
20260902034346 27 177 1.6 1.6 0.00 0.00 0.00 75 1017.3
20260902033844 27 177 0.0 1.6 0.00 0.00 0.00 74 1017.3
20260902033339 27 177 1.6 1.6 0.00 0.00 0.00 75 1017.3
20260902032838 27 177 0.0 1.6 0.00 0.00 0.00 74 1017.3
20260902032338 27 177 0.0 1.6 0.00 0.00 0.00 75 1017.3
20260902031833 27 177 1.6 3.2 0.00 0.00 0.00 75 1017.2
20260902031330 27 177 1.6 1.6 0.00 0.00 0.00 75 1017.3
20260902030825 27 170 0.0 1.6 0.00 0.00 0.00 76 1017.4
20260902030325 27 170 1.6 1.6 0.00 0.00 0.00 74 1017.3
20260902025824 27 170 1.6 1.6 0.00 0.00 0.00 75 1017.1
20260902025321 27 170 1.6 1.6 0.00 0.00 0.00 76 1017.4
20260902024820 27 170 1.6 1.6 0.00 0.00 0.00 76 1017.2
20260902024316 28 170 1.6 1.6 0.00 0.00 0.00 73 1017.3
20260902023811 28 170 1.6 1.6 0.00 0.00 0.00 73 1017.4
20260902023307 28 170 1.6 1.6 0.00 0.00 0.00 73 1017.2
20260902022805 28 170 0.0 0.0 0.00 0.00 0.00 73 1017.2
20260902022301 28 169 0.0 0.0 0.00 0.00 0.00 72 1017.3
20260902021757 28 159 1.6 1.6 0.00 0.00 0.00 72 1017.4
20260902021256 28 168 0.0 1.6 0.00 0.00 0.00 71 1017.4
20260902020753 28 168 0.0 1.6 0.00 0.00 0.00 71 1017.1
20260902020249 28 172 1.6 3.2 0.00 0.00 0.00 71 1017.3
20260902015743 29 156 3.2 3.2 0.00 0.00 0.00 70 1017.2
20260902015240 29 184 3.2 3.2 0.00 0.00 0.00 69 1017.2
20260902014735 29 179 1.6 1.6 0.00 0.00 0.00 70 1017.2
20260902014232 29 177 1.6 1.6 0.00 0.00 0.00 70 1017.0
20260902013730 29 181 1.6 3.2 0.00 0.00 0.00 70 1017.1
20260902013226 29 181 1.6 3.2 0.00 0.00 0.00 70 1017.0
20260902012721 28 180 1.6 1.6 0.00 0.00 0.00 71 1017.2
20260902012217 28 176 1.6 3.2 0.00 0.00 0.00 72 1017.4
20260902011713 28 160 1.6 1.6 0.00 0.00 0.00 72 1017.0
20260902011212 28 161 1.6 1.6 0.00 0.00 0.00 74 1017.2
20260902010711 27 169 1.6 1.6 0.00 0.00 0.00 74 1017.0
20260902010208 27 190 0.0 1.6 0.00 0.00 0.00 75 1016.9
20260902005705 27 190 0.0 1.6 0.00 0.00 0.00 76 1016.9
20260902005201 27 191 0.0 1.6 0.00 0.00 0.00 76 1017.0
20260902004701 27 191 0.0 0.0 0.00 0.00 0.00 75 1016.9
20260902004156 27 191 0.0 1.6 0.00 0.00 0.00 76 1016.8
20260902003652 28 191 0.0 0.0 0.00 0.00 0.00 76 1016.9
20260902003147 28 191 0.0 0.0 0.00 0.00 0.00 75 1016.9
20260902002643 28 191 0.0 0.0 0.00 0.00 0.00 74 1016.8
20260902002142 28 191 0.0 1.6 0.00 0.00 0.00 73 1016.8
20260902001638 28 191 0.0 0.0 0.00 0.00 0.00 73 1017.0
20260902001132 28 191 0.0 0.0 0.00 0.00 0.00 72 1016.9
20260902000628 29 191 0.0 0.0 0.00 0.00 0.00 72 1017.0
20260902000128 29 191 0.0 0.0 0.00 0.00 0.00 72 1017.0
20260901235627 29 191 0.0 0.0 0.00 0.00 0.00 72 1017.1
20260901235123 30 191 0.0 1.6 0.00 0.00 0.00 70 1017.1
20260901234622 30 191 0.0 0.0 0.00 0.00 0.00 69 1017.1
20260901234117 30 191 0.0 1.6 0.00 0.00 0.00 66 1017.1
20260901233612 31 191 0.0 0.0 0.00 0.00 0.00 67 1017.0
20260901233108 32 191 0.0 1.6 0.00 0.00 0.00 59 1017.1
20260901232603 32 196 0.0 1.6 0.00 0.00 0.00 60 1017.1
20260901232103 32 190 0.0 0.0 0.00 0.00 0.00 57 1017.1
20260901231600 32 292 1.6 4.8 0.00 0.00 0.00 55 1017.0
20260901231056 32 201 1.6 3.2 0.00 0.00 0.00 55 1017.3
20260901230552 33 177 0.0 0.0 0.00 0.00 0.00 54 1017.1
20260901230051 33 187 3.2 6.4 0.00 0.00 0.00 54 1017.1
20260901225546 33 197 0.0 1.6 0.00 0.00 0.00 54 1017.2
20260901225046 33 190 1.6 1.6 0.00 0.00 0.00 54 1017.1
20260901224542 33 225 1.6 1.6 0.00 0.00 0.00 51 1017.1
20260901224038 33 151 1.6 1.6 0.00 0.00 0.00 51 1017.2
20260901223533 34 208 0.0 1.6 0.00 0.00 0.00 52 1017.2
20260901223029 34 196 0.0 3.2 0.00 0.00 0.00 52 1017.0
20260901222525 34 296 1.6 3.2 0.00 0.00 0.00 51 1017.1
20260901222020 34 194 1.6 3.2 0.00 0.00 0.00 51 1017.1
20260901221516 35 288 1.6 6.4 0.00 0.00 0.00 50 1017.0
20260901221012 35 277 0.0 4.8 0.00 0.00 0.00 51 1016.9
20260901220511 35 207 3.2 3.2 0.00 0.00 0.00 51 1016.9
20260901220010 35 192 1.6 3.2 0.00 0.00 0.00 51 1016.9
20260901215509 34 262 0.0 1.6 0.00 0.00 0.00 52 1016.9
20260901215008 35 196 1.6 6.4 0.00 0.00 0.00 52 1016.8
20260901214508 35 185 1.6 3.2 0.00 0.00 0.00 51 1016.9
20260901214003 35 227 3.2 4.8 0.00 0.00 0.00 49 1016.9
20260901213502 35 315 1.6 3.2 0.00 0.00 0.00 49 1016.8